Flag for Australia Weather past 2 weeks in Sydney, New South Wales, Australia

Now
79 °F

Sunny.


Feels Like: 78 °F
Forecast: 64 / 80 °F
Wind: 22 mph from West

Location: Sydney Airport

Current Time: Mar 6, 2015 at 1:32:54 PM

Latest Report: Mar 6, 2015 at 12:30 PM


Visibility: 10 mi

Pressure: 29.68 "Hg

Humidity: 17%

Dew point: 30 °F

Location of SydneyLocation

Historic Weather in Sydney — Graph

°F

Sydney temperature yesterday

Maximum temperature yesterday: 79 °F (at 11:30 AM)
Minimum temperature yesterday: 66 °F (at 11:30 PM)
Average temperature yesterday: 72 °F

Past Weeks' High & Low Weather Summary

 TemperatureHumidityPressure
High100 °F (Mar 1, 3:00 PM)100% (Mar 1, 5:30 PM)30.15 "Hg (Mar 1, 5:30 PM)
Low63 °F (Mar 6, 2:00 AM)18% (Mar 6, 11:30 AM)29.59 "Hg (Mar 1, 3:00 PM)
Average74 °F72%29.91 "Hg
* Reported Feb 19 12:30 PM — Mar 6 12:00 Noon, Sydney, Weather by CustomWeather, © 2015

Note: Actual official high and low records may vary slightly from our data, if they occured in-between our weather recording intervals... More about our weather records

Advertising

Sydney weather history for previous 24 hours

 ConditionsComfort  
Time TempWeatherWind HumidityBarometerVisibility
12:00 PM
Fri, Mar 6
77 °FSunny.23 mph18%29.71 "Hg10 mi
11:30 AM75 °FSunny.24 mph18%29.71 "Hg10 mi
11:00 AM73 °FSunny.20 mph19%29.74 "Hg10 mi
10:30 AM72 °FSunny.20 mph22%29.74 "Hg10 mi
10:00 AM72 °FSunny.21 mph22%29.74 "Hg10 mi
9:30 AM70 °FSunny.16 mph25%29.74 "Hg10 mi
9:00 AM70 °FSunny.15 mph31%29.74 "Hg10 mi
8:30 AM66 °FSunny.15 mph43%29.74 "Hg10 mi
7:00 AM64 °FSunny.12 mph60%29.77 "Hg10 mi
6:30 AM63 °FClear.13 mph64%29.77 "Hg10 mi
6:00 AM63 °FClear.12 mph64%29.77 "Hg10 mi
5:30 AM63 °FClear.12 mph64%29.77 "Hg10 mi
5:00 AM63 °FClear.8 mph64%29.77 "Hg10 mi
4:30 AM63 °FClear.8 mph64%29.80 "Hg10 mi
4:00 AM63 °FClear.8 mph64%29.80 "Hg10 mi
3:30 AM63 °FClear.6 mph64%29.80 "Hg10 mi
3:00 AM63 °FClear.8 mph64%29.83 "Hg10 mi
2:30 AM63 °FClear.8 mph64%29.83 "Hg10 mi
2:00 AM63 °FClear.10 mph64%29.86 "Hg10 mi
1:30 AM64 °FClear.10 mph60%29.86 "Hg10 mi
1:00 AM64 °FClear.9 mph60%29.86 "Hg10 mi
12:30 AM66 °FClear.8 mph56%29.89 "Hg10 mi
11:30 PM
Thu, Mar 5
66 °FPassing clouds.12 mph56%29.89 "HgN/A
11:00 PM68 °FPassing clouds.9 mph53%29.89 "HgN/A
10:00 PM68 °FPassing clouds.10 mph49%29.89 "HgN/A
9:30 PM68 °FPassing clouds.14 mph53%29.89 "HgN/A
9:00 PM70 °FPassing clouds.16 mph53%29.89 "HgN/A
8:30 PM70 °FPassing clouds.17 mph46%29.86 "HgN/A
8:00 PM68 °FPassing clouds.17 mph53%29.86 "HgN/A
7:30 PM70 °FPassing clouds.18 mph50%29.86 "HgN/A
7:00 PM70 °FPassing clouds.18 mph50%29.83 "HgN/A
6:30 PM72 °FPassing clouds.21 mph44%29.80 "HgN/A
6:00 PM72 °FPassing clouds.23 mph44%29.80 "HgN/A
5:30 PM73 °FPassing clouds.24 mph41%29.80 "HgN/A
5:00 PM72 °FPassing clouds.24 mph44%29.80 "HgN/A
4:30 PM72 °FPassing clouds.26 mph53%29.80 "HgN/A
4:00 PM72 °FPassing clouds.24 mph53%29.80 "HgN/A
3:00 PM73 °FScattered clouds.23 mph57%29.77 "HgN/A
2:30 PM72 °FScattered clouds.24 mph65%29.77 "HgN/A
2:00 PM72 °FPassing clouds.24 mph65%29.77 "HgN/A
1:00 PM79 °FScattered clouds.20 mph32%29.74 "HgN/A
Weather by CustomWeather, © 2015

See weather overviewHow to use our weather pages